Theta_e
341 336 340 344 360 363 367 365 361 355 353 349 346 348 353 352 354 352 347 347 344 348 347 347 348 350 348 349 347 350 349 349 351 351 351 352 352 352 352 353 353 353 353 353 352 352 352 350 347
340 342 345 354 365 369 367 364 359 352 349 346 347 349 352 354 348 348 348 344 344 346 348 348 345 345 350 350 349 351 349 349 346 350 351 352 352 351 352 353 352 353 353 352 351 351 350 347 347
346 347 351 359 366 368 367 363 355 350 347 346 348 347 351 354 349 348 348 344 346 348 345 341 340 348 350 350 351 351 351 350 351 349 351 351 352 353 352 352 353 353 353 352 351 351 350 349 345
350 349 350 366 370 364 364 363 350 347 346 346 349 353 349 348 347 348 347 345 346 341 344 348 345 351 352 350 351 351 350 350 352 352 351 352 353 353 353 352 352 353 352 351 350 351 345 342 344
352 354 364 367 366 362 360 361 349 351 350 349 348 352 350 346 347 347 347 347 341 346 347 348 348 350 351 351 351 352 351 351 350 351 351 352 352 352 352 353 352 352 352 349 349 344 344 343 344
357 356 368 369 365 362 361 360 350 349 349 349 350 351 348 346 346 346 347 344 340 343 346 351 350 351 351 351 351 351 351 351 351 349 350 351 351 352 352 352 353 353 353 342 340 342 343 344 344
359 362 367 365 364 364 364 358 357 350 349 349 346 352 347 345 345 347 347 343 342 344 347 349 350 351 352 351 351 351 351 351 351 351 351 351 351 352 352 352 353 353 352 340 338 340 342 343 344
357 356 363 360 364 365 361 359 357 358 351 344 345 350 349 344 347 347 346 344 345 348 347 349 350 349 350 350 352 351 350 351 351 351 351 351 351 352 352 349 353 353 351 342 337 337 340 342 343
354 363 365 361 361 364 358 359 355 351 350 346 345 345 343 344 347 346 346 347 349 351 349 348 348 346 351 348 352 350 351 351 348 349 351 348 349 348 347 351 352 352 347 340 336 339 341 343 343
357 356 360 357 357 362 358 358 356 353 356 355 345 342 345 348 346 346 347 347 348 349 350 346 343 347 348 350 348 348 347 344 344 345 347 346 346 343 345 351 351 347 339 336 335 340 341 342 344
352 358 351 355 356 357 356 355 353 352 355 351 346 344 347 346 345 346 347 347 348 349 350 349 350 347 344 345 343 344 345 345 346 346 348 345 343 343 345 347 343 344 343 341 341 343 346 348 346
353 352 351 355 355 355 356 352 349 349 353 347 343 343 346 347 347 347 347 348 349 349 350 350 349 349 348 348 346 348 347 346 347 346 348 346 339 341 341 343 344 344 342 344 344 345 346 342 341
356 356 349 355 353 351 351 355 359 354 353 351 343 343 345 346 347 346 346 348 349 349 351 349 349 350 348 347 348 347 347 346 347 348 345 344 339 340 343 346 347 339 338 342 346 345 342 341 342
345 351 353 355 356 352 358 357 352 353 352 352 343 341 342 346 346 347 347 348 349 350 350 347 346 349 348 347 347 347 347 347 348 347 347 346 341 344 346 346 345 345 346 346 345 343 343 341 341
333 347 352 355 358 357 352 355 357 351 350 348 343 341 339 344 346 347 347 348 350 350 349 348 349 349 347 348 348 349 348 348 347 347 347 344 345 346 347 345 344 345 346 347 347 346 343 341 339
331 351 351 358 359 358 356 359 351 349 352 352 344 342 340 345 347 347 347 349 350 349 348 349 349 348 348 350 349 348 347 347 347 347 347 346 346 346 347 345 344 346 345 346 348 347 347 342 340
324 330 352 361 358 359 357 354 354 352 354 354 349 342 340 346 346 348 348 349 350 350 350 352 348 347 348 351 348 348 348 347 346 345 347 347 346 345 346 348 346 345 346 346 347 346 345 346 342
326 333 341 356 361 357 357 357 354 353 355 357 349 342 340 345 345 346 348 350 351 348 349 350 349 347 350 351 349 348 347 341 343 346 349 349 347 346 348 348 345 346 347 347 346 345 346 348 344
323 326 357 361 358 358 356 354 355 353 354 357 346 341 341 345 343 344 348 350 349 348 347 346 347 347 348 350 350 350 345 344 344 347 349 348 349 348 348 350 345 346 347 347 348 348 348 343 344
322 328 359 356 355 356 358 361 359 356 356 352 345 340 341 343 344 344 347 348 348 349 348 347 347 348 345 349 351 351 350 349 348 349 349 349 350 346 347 347 346 347 346 346 346 348 346 346 346
321 323 354 357 354 354 355 356 358 355 354 348 345 340 341 342 344 343 346 347 346 347 349 349 348 345 344 349 351 352 352 350 349 349 350 349 350 348 350 349 346 349 348 348 346 348 347 348 346
318 321 344 354 357 363 353 355 353 351 356 352 348 344 341 340 342 343 345 346 346 347 349 348 348 346 344 344 350 351 350 350 349 348 349 350 351 350 349 349 348 347 348 348 348 349 348 347 347
321 322 337 350 350 355 358 357 351 352 360 357 354 348 346 342 342 343 344 346 347 347 349 348 347 347 345 346 351 350 349 346 350 348 350 351 352 350 349 347 350 350 349 347 346 349 348 348 348
323 339 341 342 345 351 350 355 358 358 359 358 353 349 349 347 342 341 342 346 347 348 349 349 348 348 347 352 353 350 347 343 348 351 351 352 351 351 352 350 348 349 348 348 347 349 349 349 347
324 324 328 346 353 348 348 353 348 354 356 356 357 355 352 349 349 341 340 347 347 347 350 350 349 348 347 348 352 352 348 348 349 350 352 352 353 351 351 352 352 348 349 347 348 350 350 347 348
324 324 328 338 340 340 345 355 354 348 346 348 349 349 349 349 351 347 344 345 347 347 349 352 351 349 348 346 352 352 351 348 349 352 350 348 348 349 353 352 353 351 350 347 351 349 349 346 346
323 325 323 328 328 339 349 350 345 351 349 347 345 351 352 349 349 347 346 348 347 347 350 350 351 349 348 346 352 351 351 350 350 350 348 347 348 348 350 351 352 353 351 350 351 350 349 348 349
323 326 332 326 334 343 351 352 353 352 362 358 350 353 352 345 348 348 346 346 346 346 349 350 351 352 350 349 351 351 351 351 349 350 349 350 352 352 352 351 347 349 352 352 352 349 348 349 350
327 329 327 325 326 337 353 352 356 359 358 358 356 352 347 345 344 343 345 347 346 347 344 344 348 352 351 351 352 354 350 353 353 348 352 350 353 352 352 351 348 347 351 352 351 351 349 348 349
326 328 325 329 330 343 344 357 352 350 349 349 350 347 347 346 346 346 343 343 348 345 345 340 342 347 351 352 350 352 350 349 349 348 354 354 351 351 351 350 349 348 350 352 350 350 349 350 351
Wind_Speed
6 8 7 2 2 2 3 7 5 6 4 4 16 9 4 5 2 4 26 20 30 26 24 21 19 17 16 15 15 15 15 16 17 17 18 18 18 18 18 19 19 19 18 18 18 19 21 22 21
9 8 1 1 1 3 3 3 9 15 14 20 13 8 9 5 8 17 19 32 31 29 25 22 19 18 16 15 15 15 15 16 16 16 17 17 17 18 17 18 18 18 18 17 17 18 20 20 19
11 7 1 2 2 3 3 2 14 13 8 8 7 10 5 8 17 16 28 35 32 28 24 21 20 18 16 14 15 14 14 16 16 16 16 17 17 18 18 18 18 18 17 17 17 17 17 16 15
6 2 2 2 2 4 5 2 8 16 11 14 18 12 9 13 11 21 35 35 31 28 24 20 18 17 15 15 15 14 14 14 15 16 15 16 17 17 17 17 16 16 15 16 17 16 17 17 17
2 1 3 4 4 4 4 7 16 8 7 17 19 10 5 11 29 36 35 31 32 27 23 20 18 16 16 14 14 14 14 14 15 15 16 16 16 17 17 17 15 15 15 16 16 18 18 19 20
1 1 2 2 0 2 2 5 13 21 18 19 18 13 5 31 35 33 35 32 30 28 23 20 18 16 16 15 15 14 14 14 16 15 15 17 17 17 16 16 15 14 15 16 18 19 19 20 18
2 2 3 2 4 4 4 8 9 19 20 13 18 15 13 26 31 35 36 33 31 27 25 21 18 16 15 15 14 14 14 14 15 15 16 16 16 16 16 15 13 14 14 16 17 17 18 16 15
1 3 4 1 6 4 9 4 5 11 11 16 21 8 20 23 33 32 34 34 31 28 25 22 19 17 17 15 13 14 14 15 16 16 16 16 16 16 15 16 15 13 13 13 16 17 16 13 14
3 3 5 2 5 6 12 11 5 3 11 12 2 17 29 36 36 30 28 27 27 24 24 22 20 20 18 15 14 14 14 14 16 16 15 17 17 17 17 17 14 12 12 12 14 19 14 12 13
5 1 4 6 11 6 10 16 13 4 5 5 15 17 33 39 34 30 26 23 23 26 25 23 22 20 19 17 15 16 17 17 16 17 18 18 17 17 16 14 13 12 13 13 13 14 12 10 8
7 5 5 8 10 10 13 14 9 15 3 8 21 19 28 33 31 30 28 32 29 29 25 23 21 18 17 17 17 20 19 16 14 15 15 15 15 16 16 16 15 14 13 14 13 10 7 4 3
6 7 7 5 4 6 12 14 14 10 8 14 17 18 25 23 25 25 23 25 27 25 26 23 21 20 15 17 18 18 17 19 17 15 16 14 15 17 18 16 13 12 10 8 6 2 5 8 6
5 10 9 3 4 10 13 14 11 12 9 7 18 16 21 22 25 25 29 29 27 29 27 25 23 20 17 16 17 16 15 17 17 15 16 16 17 18 16 12 8 8 8 8 6 6 9 14 15
8 11 9 14 9 12 13 8 3 11 7 9 20 14 17 20 24 22 25 27 27 32 28 26 25 22 18 17 17 16 15 15 16 16 15 13 14 13 9 10 7 9 8 7 6 7 6 9 16
11 8 9 13 10 9 14 7 7 3 5 13 18 11 9 21 31 28 30 29 34 31 27 23 25 22 19 17 14 13 15 15 13 18 13 12 11 10 7 12 9 8 9 7 6 3 4 4 10
2 1 7 8 13 13 6 5 3 7 6 7 16 12 8 19 26 30 31 32 32 31 29 22 20 24 19 14 19 16 18 16 16 14 13 15 12 12 10 12 9 10 5 7 5 2 3 7 6
4 4 7 9 21 11 5 11 13 14 10 8 12 14 9 20 22 27 30 32 37 34 30 26 24 23 19 16 19 16 18 18 16 14 14 15 12 13 12 9 8 8 7 8 5 4 4 5 9
4 1 2 6 9 6 8 8 19 18 14 12 13 13 8 20 18 29 31 32 36 33 35 29 25 21 19 15 17 16 16 14 14 15 14 14 13 14 11 9 9 7 5 7 3 4 2 2 8
3 5 4 6 8 7 7 14 20 17 14 14 14 11 10 17 23 29 33 35 36 33 32 32 25 20 23 17 12 14 15 13 15 14 14 13 13 13 11 9 12 8 5 6 4 3 2 5 2
5 3 5 8 8 8 6 14 19 19 21 17 14 10 14 13 14 22 28 33 33 34 31 31 26 21 18 16 14 16 15 10 15 13 13 13 11 12 12 11 11 10 7 8 5 4 2 3 3
8 6 9 6 9 4 6 2 4 3 10 12 12 9 16 18 17 15 22 30 31 31 30 35 29 21 20 18 12 15 14 14 14 15 12 13 12 14 13 13 14 8 8 8 7 3 3 2 2
7 9 13 18 8 5 6 4 5 7 9 13 15 11 15 14 16 17 21 25 28 32 31 35 28 22 19 17 10 16 18 14 13 15 13 12 13 12 12 11 13 13 10 9 7 4 2 1 6
10 6 10 17 5 8 2 3 2 9 9 15 8 12 12 17 17 19 22 28 28 34 33 35 30 23 20 17 12 13 14 12 12 11 14 14 15 13 11 11 11 12 11 9 10 6 5 2 4
7 4 8 7 4 2 10 6 4 9 17 21 11 10 13 12 15 18 26 29 29 31 33 35 33 26 23 20 12 14 13 14 13 13 16 17 16 14 12 13 12 12 13 11 11 7 6 2 3
5 6 1 2 1 6 13 4 6 11 16 22 17 11 9 10 5 11 16 25 26 28 29 33 34 30 25 24 16 16 14 14 14 16 20 18 18 16 16 15 14 11 11 13 12 10 7 6 3
3 8 5 5 5 2 10 6 6 12 9 5 7 8 7 9 8 8 9 18 28 30 31 29 34 31 27 25 20 18 14 14 17 19 21 18 19 19 18 17 14 10 11 13 11 12 10 8 6
3 2 6 2 1 4 4 1 7 9 4 7 7 8 10 10 14 7 8 22 16 11 13 24 34 32 29 30 24 19 18 17 17 18 20 18 18 17 19 19 16 14 14 14 14 13 11 12 8
6 3 3 4 1 3 3 4 2 4 6 6 7 7 9 13 12 11 8 17 26 25 16 4 16 24 26 29 29 27 24 22 19 15 18 18 18 20 22 21 18 17 17 17 16 16 15 13 12
4 3 5 4 4 4 4 2 3 9 10 8 9 8 8 9 9 7 3 16 23 20 13 14 4 15 19 21 26 30 30 26 22 20 17 19 19 18 19 22 20 18 20 18 17 15 14 14 14
5 5 5 5 3 3 4 2 6 13 12 10 9 13 10 11 9 7 9 10 6 20 20 22 19 7 6 12 22 24 28 29 28 26 22 16 22 22 18 19 19 20 21 20 18 16 15 13 12
Wind_Direction
187 155 151 157 69 7 208 247 346 110 60 91 160 142 141 91 158 168 142 156 147 143 148 145 143 136 128 120 118 116 116 118 118 116 117 113 111 107 105 104 106 106 104 105 106 105 101 104 105
164 140 235 259 147 166 225 304 145 101 112 101 84 87 56 83 84 119 121 148 147 144 144 150 143 134 128 126 119 118 118 119 118 121 121 117 115 112 110 108 109 109 111 109 109 107 105 106 109
172 185 165 173 190 182 231 82 131 122 135 114 107 67 70 102 115 135 141 148 143 144 145 140 138 132 131 126 126 123 118 120 122 123 125 124 121 116 112 113 110 111 112 115 113 110 109 107 102
177 150 334 248 209 142 233 5 104 107 79 81 104 76 90 118 122 135 145 145 144 144 140 138 137 134 131 131 128 123 124 121 123 127 127 126 119 115 114 118 112 113 111 115 116 119 114 101 105
273 12 229 240 196 185 229 322 148 120 76 100 107 114 71 106 126 135 138 146 145 143 142 139 140 140 137 135 128 124 123 128 124 125 126 122 121 118 120 120 119 121 116 119 122 126 112 106 111
98 74 250 216 307 265 216 68 122 100 107 105 102 113 111 135 136 143 147 148 146 144 144 145 146 138 139 138 134 131 129 128 122 121 120 124 127 125 124 124 121 123 124 125 131 128 116 109 115
212 200 238 190 156 220 86 21 64 106 119 120 127 119 131 145 146 148 149 149 149 147 149 150 144 142 142 141 137 134 131 126 124 126 126 124 128 124 125 124 126 129 132 129 134 134 124 120 123
91 354 291 185 171 146 108 78 354 40 91 126 123 150 154 158 147 144 146 146 150 152 149 148 146 153 148 146 140 134 132 133 129 127 130 132 130 128 126 122 123 127 129 127 128 126 135 130 121
89 352 330 305 170 116 142 117 38 303 130 142 79 139 148 148 141 135 136 142 150 153 152 152 155 152 152 144 142 135 135 136 133 133 135 138 136 130 130 125 129 126 125 124 129 134 151 143 125
142 278 253 327 319 169 127 124 143 98 45 42 127 131 140 140 144 144 149 150 159 161 163 159 156 156 156 151 152 141 137 131 135 134 137 135 136 133 128 123 123 118 115 118 124 131 136 146 136
153 165 203 276 283 161 129 135 136 132 140 231 158 148 143 146 153 156 160 158 168 164 161 162 157 155 154 155 151 143 139 139 147 153 149 142 141 138 133 126 128 124 126 128 139 150 160 176 178
125 236 224 302 355 112 126 139 139 154 196 190 172 153 144 150 157 159 153 157 164 167 166 164 162 156 161 146 154 156 152 141 141 146 164 157 147 142 134 134 131 132 127 144 143 113 61 70 98
221 172 216 82 307 129 150 128 138 163 166 165 166 150 151 158 161 159 153 158 164 167 169 169 167 166 166 156 154 158 163 156 150 167 155 152 143 145 145 152 146 138 152 137 113 87 100 90 86
208 186 177 188 167 150 115 75 132 180 177 186 168 167 165 160 161 151 147 151 162 165 169 168 174 172 169 165 167 168 170 168 160 157 158 166 153 160 168 187 163 158 145 138 114 114 102 118 111
249 146 159 190 161 135 117 45 27 167 240 183 170 174 156 161 155 159 157 152 159 162 163 159 174 183 171 176 170 183 193 183 164 171 172 160 156 151 139 160 151 158 148 131 127 121 138 117 147
140 285 150 156 175 167 110 168 284 249 236 193 178 177 176 160 159 161 159 153 160 158 164 160 162 166 160 161 171 166 169 172 156 150 168 175 154 154 134 158 175 168 168 175 157 126 153 182 165
14 198 123 162 190 165 164 164 186 197 225 227 203 183 179 157 155 156 157 158 163 164 165 163 158 158 167 167 170 163 164 163 169 169 163 163 156 164 161 156 161 181 177 174 177 163 157 204 214
234 25 125 156 152 37 123 147 170 193 208 222 205 185 154 157 159 160 157 161 165 168 167 169 159 164 168 169 177 174 174 178 186 177 178 172 163 168 164 175 193 190 188 179 205 183 186 240 194
296 354 62 91 101 131 113 148 187 192 205 225 188 183 157 160 158 152 157 162 167 169 169 172 171 167 173 175 188 186 180 172 174 175 172 168 172 176 183 192 186 201 198 180 146 133 124 156 203
267 136 104 75 97 57 150 144 181 204 211 209 178 173 157 156 162 156 153 161 168 170 173 174 177 172 173 182 184 184 184 175 167 168 170 168 167 176 180 184 191 209 217 194 177 120 91 77 98
259 168 182 152 109 28 263 73 139 279 208 199 185 171 167 157 163 161 156 162 166 162 170 174 175 174 176 188 192 195 184 156 157 171 180 180 178 186 182 186 185 199 190 179 179 155 112 42 35
257 212 169 146 134 171 222 217 228 171 249 191 193 175 175 167 163 165 161 164 167 165 168 176 177 179 189 187 192 186 176 171 186 185 187 193 187 176 179 184 198 200 202 208 194 182 170 152 43
239 203 183 165 125 118 259 118 263 146 197 206 201 175 165 178 161 168 165 169 170 171 172 176 179 185 191 189 205 190 182 176 174 190 197 205 195 186 184 198 188 200 210 207 195 211 228 146 80
232 87 66 57 59 86 194 161 209 181 177 206 198 199 166 168 166 168 166 170 174 175 176 179 182 186 195 196 205 212 191 186 186 192 196 198 198 199 195 201 205 218 222 211 193 186 212 197 129
106 76 89 102 250 229 159 179 245 185 180 195 178 171 137 85 55 152 169 172 172 174 179 184 186 190 198 203 204 206 209 210 203 201 188 193 194 199 199 205 213 214 216 207 208 202 222 231 227
140 141 154 184 172 181 151 202 268 194 171 142 142 136 102 86 62 82 112 178 175 178 181 183 191 195 197 202 207 208 209 215 207 196 204 205 205 209 206 202 210 215 206 204 211 220 234 233 241
254 94 194 96 89 96 182 19 29 62 77 134 109 115 149 122 114 88 96 124 132 141 184 191 196 201 200 200 208 209 210 211 214 218 215 213 208 212 203 206 206 208 217 216 222 228 239 237 238
135 168 67 20 250 128 347 64 310 84 78 58 127 143 132 116 108 117 101 92 94 75 63 189 210 210 211 208 206 210 214 216 218 225 221 216 222 225 213 212 217 210 213 218 225 234 234 236 239
37 61 58 112 118 161 142 6 292 103 93 87 83 113 100 89 99 92 107 125 116 97 31 27 9 214 222 226 224 216 216 218 222 228 231 235 232 225 219 220 215 213 216 217 221 227 236 235 243
141 138 113 117 272 93 104 81 93 101 89 88 82 91 93 80 80 100 135 83 148 168 211 283 288 9 150 231 233 239 225 224 224 229 231 248 228 230 227 220 224 217 218 221 226 231 233 238 248